[ hide orbit diagram ]
For accurate long-term ephemerides, please instead use our Horizons system.This orbit viewer was implemented using two-body methods, and hence should not be used for determining accurate long-term trajectories (over several years or decades) or planetary encounter circumstances.
Orbital Elements at Epoch 2459000.5 (2020-May-31.0) TDB
Reference: JPL 14 (heliocentric ecliptic J2000)
Element | Value | Uncertainty (1-sigma) | Units |
e | .1407351727541129 | 5.3794e-08 | |
a | 2.260586472799156 | 1.2014e-08 | au |
q | 1.942442445024156 | 1.2384e-07 | au |
i | 6.397576441504834 | 6.1022e-06 | deg |
node | 175.310993702331 | 4.2805e-05 | deg |
peri | 181.3983087439696 | 4.8259e-05 | deg |
M | 62.67752884574053 | 1.9513e-05 | deg |
tp | 2458784.357844470654 (2019-Oct-27.85784447) | 6.7285e-05 | TDB |
period | 1241.452517728811 3.40 | 9.8968e-06 2.71e-08 | d yr |
n | .2899828989501798 | 2.3117e-09 | deg/d |
Q | 2.578730500574156 | 1.3705e-08 | au |
|
| | Orbit Determination Parameters
Additional Information
|
[ show covariance matrix ]
Physical Parameter Table
Parameter |
Symbol |
Value |
Units |
Sigma |
Reference |
Notes |
absolute magnitude |
H |
17.5 |
|
n/a |
MPO494954 |
|
|
382631 (2002 QQ14) Discovered 2002-Aug-26 by NEAT at Palomar |
Reference: | Last Updated: 2014-01-21 |
|
[ show close-approach data ]
|